Location: Hermaringen
(48.5952°N, 10.2585°E)
Time: 23:07:24
(UTC+00:00)

Altair - Pass Details

Date: 24 February 2026
Orbit: 1502 x 1682 km, 47.2° (Epoch: 10 March)

Event Time Altitude Azimuth Distance (km) Brightness Sun altitude
Exits shadow 00:43:39 15° 96° (E) 3,272 9.3 -48.2°
Drops below altitude 10° 00:45:38 10° 85° (E) 3,677 9.7 -48.0°
Sets 00:49:33 0° 72° (ENE) 4,682 10.5 -47.7°
